AirNav   Duncan Aviation - Near you to keep you flying
 
 1009 users online  

3N6 Old Bridge Airport
Old Bridge, New Jersey, USA

GOING TO OLD BRIDGE?


FAA INFORMATION EFFECTIVE 01 DECEMBER 2022

Location

FAA Identifier: 3N6
Lat/Long: 40-19-47.5920N 074-20-48.4330W
40-19.793200N 074-20.807217W
40.3298867,-74.3467869
(estimated)
Elevation: 87 ft. / 27 m (estimated)
Variation: 13W (2010)
From city: 5 miles S of OLD BRIDGE, NJ
Time zone: UTC -5 (UTC -4 during Daylight Saving Time)
Zip code: 08831

Airport Operations

Airport use: Open to the public
Activation date: 02/1966
Control tower: no
ARTCC: NEW YORK CENTER
FSS: MILLVILLE FLIGHT SERVICE STATION
NOTAMs facility: MIV (NOTAM-D service available)
Attendance: 0800-1700
Wind indicator: lighted
Segmented circle: yes
Lights: ACTVT REIL RWY 6 & 24; MIRL RWY 06/24 - CTAF.
Beacon: white-green (lighted land airport)
ACTVT ROTG BCN - CTAF.

Airport Communications

CTAF/UNICOM: 123.075
MC GUIRE APPROACH: 126.475
MC GUIRE DEPARTURE: 126.475
WX AWOS-3PT at BLM (13 nm SE): 121.625 (732-938-3330)
WX AWOS-AV at N12 (18 nm SE): 122.8 (732-363-6471)
WX AWOS-3 at LDJ (18 nm N): 124.025 (908-862-7383)

Nearby radio navigation aids

VOR radial/distance  VOR name  Freq  Var
COLr288/8.6COLTS NECK VOR/DME115.4011W
RBVr052/10.2ROBBINSVILLE VORTAC113.8010W
GXUr043/22.4MC GUIRE VORTAC110.6012W
SBJr140/23.6SOLBERG VOR/DME112.9010W
ARDr090/26.1YARDLEY VOR/DME108.2010W
CRIr242/26.7CANARSIE VOR/DME112.3011W
CYNr017/31.0COYLE VORTAC113.4010W
JFKr247/31.9KENNEDY VOR/DME115.9012W
TEBr214/33.7TETERBORO VOR/DME108.4011W
LGAr231/34.9LA GUARDIA VOR/DME113.1012W
BWZr153/35.5BROADWAY VOR/DME114.2011W

 
NDB name  Hdg/Dist  Freq  Var  ID
LAKEHURST009/17.139611WNEL -. . .-..
CHATHAM184/24.925413WCAT -.-. .- -

Airport Services

Fuel available: 100LL
Parking: tiedowns
Airframe service: MAJOR
Powerplant service: MAJOR
Bottled oxygen: NONE
Bulk oxygen: NONE

Runway Information

Runway 6/24

Dimensions: 3594 x 50 ft. / 1095 x 15 m
Surface: asphalt, in fair condition
Runway edge lights: medium intensity
RUNWAY 6  RUNWAY 24
Latitude: 40-19.581100N40-20.004800N
Longitude: 074-21.077000W074-20.537000W
Elevation: 63.0 ft.86.0 ft.
Traffic pattern: leftright
Runway heading: 057 magnetic, 044 true237 magnetic, 224 true
Displaced threshold: 600 ft.400 ft.
Markings: nonprecision, in fair conditionnonprecision, in fair condition
Visual slope indicator: 2-light PAPI on left (4.00 degrees glide path)2-light PAPI on right (4.00 degrees glide path)
Runway end identifier lights: yesyes
Touchdown point: yes, no lightsyes, no lights
Obstructions: 80 ft. tree, 280 ft. from runway, 200 ft. right of centerline, 1:1 slope to clear
16 FT HNGR 53 FT FROM RWY END 200 FT L OF CNTRLN; 25 FT TREELINE 125 FT FROM RWY END ACRS CNTRLN.
40 ft. tree, 400 ft. from runway, 135 ft. left of centerline, 5:1 slope to clear
APCH SLOPE 20:1 TO DSPLCD THLD.

Airport Ownership and Management from official FAA records

Ownership: Privately-owned
Owner: MADISON INC.
182 PENSION RD
ENGLISHTOWN, NJ 07726
Phone 732-446-0303
Manager: PAUL CERNIGLIA
182 PENSION RD
ENGLISHTOWN, NJ 07726
Phone 732-718-0444

Airport Operational Statistics

Aircraft based on the field: 95
Single engine airplanes: 90
Multi engine airplanes: 4
Helicopters: 1
    
Aircraft operations: avg 42/day *
70% local general aviation
30% transient general aviation
* for 12-month period ending 21 May 2021

Additional Remarks

NO TOUCH & GO.
GCO AVBL ON FREQ 121.725 THRU MIV RADIO.
DRAG STRIP PARK & TREES E/W OF ARPT & INVOF APCH END RWY 6/24.
FOR CD USE GCO 121.725, IF UNABLE CTC MC GUIRE APCH AT 609-754-2767.
DEER & BIRDS ON & INVOF ARPT.
TWYS POOR COND, 2 IN CRACKS, 3 TO 4 IN DEEP, MNLY NR TWY HOLD SHRT LINES. TWY SFC UNEVEN, BUMPY WITH SOME VEGETATION. ALL TWY MARKINGS FADED; AREAS OF SPALLING ON TWYS LCTD BY EAST T HNGRS. LOOSE MTRL HAZ FOR ACFT.

Instrument Procedures

NOTE: All procedures below are presented as PDF files. If you need a reader for these files, you should download the free Adobe Reader.

NOT FOR NAVIGATION. Please procure official charts for flight.
FAA instrument procedures published for use from 01 December 2022 at 0901Z to 29 December 2022 at 0900z.

 
IAPs - Instrument Approach Procedures
RNAV (GPS) RWY 06   download (197KB)
RNAV (GPS) RWY 24 **CHANGED**   download (198KB)
VOR RWY 24   download (220KB)
NOTE: Special Take-Off Minimums/Departure Procedures apply   download (150KB)

Other nearby airports with instrument procedures:

KBLM - Monmouth Executive Airport (13 nm SE)
N87 - Trenton-Robbinsville Airport (14 nm SW)
39N - Princeton Airport (15 nm W)
47N - Central Jersey Regional Airport (16 nm NW)
N12 - Lakewood Airport (18 nm SE)
KNEL - Lakehurst Maxfield Field Airport (18 nm S)
KLDJ - Linden Airport (18 nm N)
 
Loc | Ops | Rwys | IFR | FBO | Links
Com | Nav | Svcs | Stats | Notes
Area around 3N6 (Old Bridge Airport)
 
Road maps at: MapQuest Bing Google
 
Aerial photo
WARNING: Photo may not be current or correct
Aerial photo of 3N6 (Old Bridge Airport)
Photo by Coleen Abrams
Photo taken 30-Sep-2007

Do you have a better or more recent aerial photo of Old Bridge Airport that you would like to share? If so, please send us your photo.

 
Sectional chart

 
Airport distance calculator
Flying to Old Bridge Airport? Find the distance to fly.

From to 3N6

Sunrise and sunset
Times for 03-Dec-2022
 Local
(UTC-5)
 Zulu
(UTC)
Morning civil twilight06:3411:34
Sunrise07:0412:04
Sunset16:3021:30
Evening civil twilight17:0122:01

Current date and time
Zulu (UTC)  03-Dec-2022 17:17:44
Local (UTC-5)  03-Dec-2022 12:17:44
 
METAR
KBLM 
14nm SE 
AWOS-3 121.625 732-938-3330
031656Z AUTO 19015G23KT 6SM -RA OVC010 13/ A3007 RMK AO2 PRESFR SLP182 P0005 T0133
KLDJ 
18nm N 
031655Z AUTO 24008KT 190V280 7SM -RA OVC014 14/12 A3003 RMK AO2 P0005 T01350117
KTTN 
22nm W 
ASOS 133.70 609-538-8690
031648Z 20019G27KT 4SM -RA BR BKN009 OVC013 12/12 A3004 RMK AO2 PK WND 20027/1642 CIG 006V011 SLP169 P0009 T01220117
KWRI 
22nm SW 
031655Z AUTO 21019G32KT 7SM -RA BR OVC006 13/13 A3006 RMK AO2 PK WND 19033/38 SLP180 P0010 T01330131
KSMQ 
23nm NW 
ASOS 120.60 908-722-2139
031653Z AUTO 19007G14KT 4SM -RA BR BKN015 OVC021 12/12 A3001 RMK AO2 SLP163 P0008 T01220117
KEWR 
23nm N 
031659Z 20015G26KT 4SM RA BR BKN007 BKN015 14/12 A3002 RMK AO2 PK WND 21026/1654 P0002 T01390122
KMJX 
24nm S 
AWOS-3 119.875 732-244-4450
130356Z AUTO 00000KT 10SM CLR 10/10 A3008 RMK AO2 SLP188 T01000100 402170028 TSNO
KJRB 
27nm NE 
031624Z AUTO 24012KT 5SM -RA OVC013 A3007 RMK AO2 P0003 FZRANO $
KMMU 
27nm N 
031645Z 23010G17KT 5SM RA OVC011 13/13 A3003
TAF
KTTN 
22nm W 
031126Z 0312/0412 19010KT P6SM SCT015 OVC035 WS020/22050KT TEMPO 0312/0313 -RA OVC015 FM031300 21012G22KT 4SM -RA BR OVC012 TEMPO 0315/0319 2SM RA OVC006 FM031900 24012G22KT P6SM SCT008 BKN015 FM032200 30012G22KT P6SM SCT035 FM040400 31008KT P6SM SKC
KWRI 
22nm SW 
031000Z 0310/0416 19008KT 9999 OVC035 WS020/21050KT QNH3018INS BECMG 0311/0312 20010KT 9999 VCSH BKN020 OVC035 WS020/21050KT QNH3013INS BECMG 0312/0313 21015G25KT 6000 -RA OVC015 WS020/21050KT QNH3005INS BECMG 0316/0317 21018G30KT 4800 SHRA OVC008 WS020/22050KT QNH3000INS BECMG 0320/0321 25015G25KT 9999 NSW OVC020 QNH3002INS BECMG 0322/0323 28012G20KT 9999 BKN040 QNH3008INS BECMG 0405/0406 30010KT 9999 FEW050 QNH3021INS TX15/0319Z TN00/0410Z
KEWR 
23nm N 
031432Z 0315/0418 20015G22KT 4SM -RA BR BKN025 TEMPO 0315/0317 2SM RA OVC009 FM031700 22018G28KT 3SM -RA BR OVC007 WS020/23050KT FM031900 24019G29KT 4SM -RA BR BKN007 OVC015 WS020/24045KT FM032100 25017G28KT P6SM SCT015 BKN045 FM032300 28016G27KT P6SM SCT045 SCT250 FM040400 30013G23KT P6SM FEW250 FM041000 30008KT P6SM SKC
NOTAMs
Click for the latest NOTAMs
NOTAMs are issued by the DoD/FAA and will open in a separate window not controlled by AirNav.

 

 
 

FBO, Fuel Providers, and Aircraft Ground Support

  
 Business Name 
 
 Contact 
 
 Services / Description 
 
Fuel Prices
 
Comments
  
Old Bridge Airport 732-446-0303
[web site]
[email]
Airport management, Aviation fuel, Aircraft parking (ramp or tiedown), Hangar leasing / sales, Pilots lounge / snooze room, Restrooms

More info about Old Bridge Airport
Phillips 66
100LL
AS $6.50 
 Updated 10-Nov-2022
 
   1 read write
AS=Assisted/Self Service
Update Fuel Prices
 

Aviation Businesses, Services, and Facilities

  
 Business Name 
 
 Contact 
 
 Services / Description 
 
Distance
 
Comments
  
 Old Bridge Flight School
732-483-4596
[web site]
[email]
Flight training, Aircraft rental, Aerial tours / aerial sightseeing, Aerial photography, Pilot supplies, Pilots lounge / snooze room, Public telephone, Computerized weather, ...

More info about Old Bridge Flight School
on airport  
   write
 

Would you like to see your business listed on this page?

 If your business provides an interesting product or service to pilots, flight crews, aircraft, or users of the Old Bridge Airport, you should consider listing it here.  To start the listing process, click on the button below
 
Add a business
 

Other Pages about Old Bridge Airport

oldbridgeairport.com
 
Update a link
 
Copyright © AirNav, LLC. All rights reserved. Privacy Policy  Contact